Regional Weather Roundup
Issued by NWS Albany, NY

Home | Current Version | Previous Version | Text Only | Print | Product List | Glossary On
Versions: 1 2 3 4 5 6 7 8 9 10 11 12 13 14 15 16 17 18 19 20 21 22 23 24 25 26 27 28 29 30 31 32 33 34 35 36 37 38 39 40 41 42 43 44 45 46 47 48 49 50
000
ASUS41 KALY 310610
RWRALY

NEW YORK STATE HOURLY WEATHER ROUNDUP
NATIONAL WEATHER SERVICE ALBANY NY
200 AM EDT TUE MAY 31 2016

NOTE: "FAIR" INDICATES FEW OR NO CLOUDS BELOW 12,000 FEET WITH NO
SIGNIFICANT WEATHER AND/OR NO OBSTRUCTIONS TO VISIBILITY.

NYZ032-033-038>043-046>054-057>066-NYZ062>081-082-084-310700-
EAST


CITY           SKY/WX    TMP DP  RH WIND       PRES   REMARKS
ALBANY         CLOUDY    66  63  90 CALM      29.92S
GLENS FALLS    PTCLDY    65  61  87 SW7       29.89S
POUGHKEEPSIE   CLOUDY    70  64  81 S3        29.91S
NEWBURGH       MOCLDY    66  64  94 W8        29.94S
MONTGOMERY     MOCLDY    66  64  93 SW3       29.93S
WHITE PLAINS   CLOUDY    70  67  90 SW3       29.93F
NEW YORK CITY  CLOUDY    74  72  93 SW7       29.92F
CENTRAL PARK   CLOUDY    73  66  78 VRB3      29.96F
$$

NYZ005>009-017-018-044>046-055-056-310700-
CENTRAL


CITY           SKY/WX    TMP DP  RH WIND       PRES   REMARKS
FULTON         CLEAR     57  52  83 CALM      29.95F
SYRACUSE       PTCLDY    64  51  62 W5        29.94F
ROME           PTCLDY    61  58  90 NE3       29.95F
ELMIRA         CLEAR     58  53  84 SE3       29.99S
BINGHAMTON     CLEAR     62  58  86 N7        29.99S
MONTICELLO     CLOUDY    61  61 100 SW3       29.99R
$$

NYZ026>034-041>043-087-310700-
NORTH


CITY           SKY/WX    TMP DP  RH WIND       PRES   REMARKS
WATERTOWN      CLEAR     60  52  74 SW5       29.93S
FORT DRUM      NOT AVBL
MASSENA        CLEAR     59  52  77 SW7       29.87S
SARANAC LAKE   CLEAR     60  49  66 SW8       29.92S
PLATTSBURGH    MOCLDY    66  57  72 SW5       29.86R
$$

NYZ001>004-010>016-019>021-085-310700-
WEST


CITY           SKY/WX    TMP DP  RH WIND       PRES   REMARKS
NIAGARA FALLS  CLEAR     62  56  80 CALM      29.96F
BUFFALO        PTCLDY    62  56  80 S6        29.97F
DUNKIRK        CLEAR     56  54  93 S3        29.97F
JAMESTOWN      CLEAR     57  54  88 CALM      30.01F
WELLSVILLE     CLEAR     58  52  80 CALM      30.04F
ROCHESTER      CLEAR     58  56  93 SW6       29.97F
PENN YAN       CLEAR     60  54  80 S3        29.99F
$$

             KEY
       WCI = WIND CHILL INDEX
       VSB = VISIBILITY
       HX  = HEAT INDEX
$$



USA.gov is the U.S. government's official web portal to all federal, state and local government web resources and services.